Location: Blandford
(50.8667°N, 2.1667°W)
Time: 09:06:59
(UTC+00:00)

SL-4 R/B - Pass Details

Date: 09 April 2020
Orbit: 428 x 666 km, 51.6° (Epoch: 01 June)

Event Time Altitude Azimuth Distance (km) Brightness Sun altitude
Rises 22:19:44 0° 282° (WNW) 2,401 5.9 -26.5°
Reaches altitude 10° 22:21:48 10° 282° (WNW) 1,544 4.8 -26.6°
Enters shadow 22:22:44 18° 281° (WNW) 1,165 4.1 -26.7°
